Lexington Weather

Lexington, Massachusetts, USA

41°F
11/27/2020 3:16am 
  • Lexington Conditions: Fog, Overcast
  • Temperature: 40.5°F / 4.7°CWarmer 0.6°F than last hour.
  • Dew Point: 39.7°FIncreased 0.5°Fsince last hour.
  • Relative Humidity: 97
  • Wind: Calm, 10-min avg: Calm, gust: None
  • Barometer: 29.97 in Steady
  • Visibility: ¼ mile
  • Rain Today: 0.00 in
  •   
Southeast Middlesex County - Special Weather Statement
 - SEE ALL NEARBY ALERTS -

Regional Weather Roundup
for Boston / Norton, MA

        
000
ASUS41 KBOX 222104
RWRBOX

REGIONAL WEATHER ROUNDUP
NATIONAL WEATHER SERVICE BOSTON/NORTON MA
400 PM EST SUN NOV 22 2020

NOTE:  "FAIR" INDICATES FEW OR NO CLOUDS BELOW 12,000 FEET WITH NO 
SIGNIFICANT WEATHER AND/OR OBSTRUCTIONS TO VISIBILITY.

MAZALL-222200-
EASTERN MASSACHUSETTS
  
CITY           SKY/WX    TMP DP  RH WIND       PRES   REMARKS
BOSTON         LGT RAIN  43  35  73 E15       30.48F                  
BEVERLY        CLOUDY    43  32  65 E7        30.47F                  
LAWRENCE       CLOUDY    42  30  62 NE7       30.49F                  
BEDFORD        CLOUDY    42  30  62 NE7       30.45F                  
BLUE HILL        N/A     41  34  76 E13G20    30.43F                  
NORWOOD        CLOUDY    45  35  68 E10       30.46F                  
MARSHFIELD     CLOUDY    46  37  71 E12G18    30.46F                  
PLYMOUTH       CLOUDY    45  37  73 E12       30.45F                  
TAUNTON        CLOUDY    47  37  68 E9        30.44F                  
NEW BEDFORD    CLOUDY    47  39  74 E9        30.43F                  
$$

MAZALL-222200-
CAPE COD AND THE ISLANDS
  
CITY           SKY/WX    TMP DP  RH WIND       PRES   REMARKS
FALMOUTH       CLOUDY    48  37  66 NE14      30.44F                  
HYANNIS        CLOUDY    48  40  73 E9        30.43F                  
CHATHAM        CLOUDY    49  39  68 E10G20    30.46F                  
PROVINCETOWN   CLOUDY    45  37  73 E14G21    30.47F                  
NANTUCKET      CLOUDY    51  42  71 E15G21    30.43S                  
MARTHAS VNYRD  CLOUDY    49  43  80 E13       30.43F                  
$$
 
MAZALL-222200-
CENTRAL AND WESTERN MASSACHUSETTS
  
CITY           SKY/WX    TMP DP  RH WIND       PRES   REMARKS
WORCESTER      CLOUDY    38  31  76 E9        30.41F WCI  31          
FITCHBURG      CLOUDY    39  29  67 CALM      30.46F                  
ORANGE         CLOUDY    38  29  70 E7        30.43F                  
SPRINGFIELD    CLOUDY    42  32  67 E6        30.39F                  
WESTFIELD      CLOUDY    42  32  67 NE7       30.40F                  
NORTH ADAMS    CLOUDY    39  30  70 E15G25    30.35F WCI  31          
PITTSFIELD     CLOUDY    38  30  73 NE6       30.33F                  
$$
 
RIZALL-222200-
RHODE ISLAND
  
CITY           SKY/WX    TMP DP  RH WIND       PRES   REMARKS
PROVIDENCE     CLOUDY    46  38  73 E9        30.43F                  
NEWPORT        CLOUDY    46  39  76 E8        30.41F                  
BLOCK ISLAND   CLOUDY    49  44  83 E20       30.39F                  
SMITHFIELD     CLOUDY    43  38  82 E7G16     30.42F                  
WESTERLY       CLOUDY    48  39  71 E14       30.39F                  
$$
 
CTZALL-222200-
CONNECTICUT
  
CITY           SKY/WX    TMP DP  RH WIND       PRES   REMARKS
BRADLEY INTL   CLOUDY    44  32  62 NE9       30.39F                  
HARTFORD       CLOUDY    47  33  58 NE7       30.39F                  
BRIDGEPORT     CLOUDY    48  37  65 NE7       30.35F                  
DANBURY        CLOUDY    43  32  65 NE7       30.35F                  
GROTON         CLOUDY    49  40  71 E14       30.38F                  
NEW HAVEN      CLOUDY    50  41  71 E12       30.35F                  
CHESTER        CLOUDY    46  39  76 E10       30.36F                  
MERIDEN        CLOUDY    45  33  63 N5        30.37F                  
WILLIMANTIC    CLOUDY    45  35  68 NE9       30.39F                  
OXFORD         CLOUDY    41  33  73 E8        30.35F                  
$$

MEZ002-015-021-024-NHZ003-005-008-011-012-014-VTZ005-008-222200-
NORTHERN NEW ENGLAND
  
CITY           SKY/WX    TMP DP  RH WIND       PRES   REMARKS
PORTLAND ME    CLOUDY    38  30  73 E14       30.51F WCI  30          
BANGOR ME      CLOUDY    35  16  45 SE5       30.53F WCI  31          
CONCORD NH     CLOUDY    36  27  69 N3        30.47F                  
MANCHESTER NH  CLOUDY    40  28  62 E5        30.45F                  
NASHUA NH      CLOUDY    40  31  70 E6        30.47F                  
PORTSMOUTH NH  CLOUDY    41  26  55 E5        30.47                   
JAFFREY NH     CLOUDY    36  25  64 CALM      30.42F                  
KEENE NH       CLOUDY    37  28  70 CALM      30.42F                  
BURLINGTON VT  CLOUDY    39  22  50 CALM      30.37F                  
MT. WASHINGTON FOG       19  19 100 SW22G29     N/A  VSB 1/16WCI   3  
$$

NYZ052-076-222200-
EASTERN NEW YORK
  
CITY           SKY/WX    TMP DP  RH WIND       PRES   REMARKS
ALBANY         DRIZZLE   34  29  82 CALM      30.35F                  
NEW YORK CITY  CLOUDY    52  43  71 NE13      30.30F                  
$$
 
ANZALL-222200-
MARINE OBSERVATIONS
  
STATION/POSITION TIME  TEMP    WIND        PRES    VSBY  WAVE
                       AIR SEA DIR/SP/G                  HT/PER
                 (UTC) (F)     (DEG/KT/KT) (MB)    (MI)  (FT/S)
BOSTON BUOY      2040   45 51   90/ 14/ 17 1032.2F
BUZZARDS BAY     2000           70/ 21/ 23 1031.2F
NANTUCKET SOUND  2040      52   80/ 16/ 19   N/A
MASS BAY-STELLWA NOT AVBL
ISLE OF SHOALS   2000   42      90/ 11/ 12 1032.3F
S OF BLOCK IS    2026      58                N/A           5/ 6
$$

......................KEY.........................
  SKY/WX - SKY CONDITION/PRESENT WEATHER
  TMP    - TEMPERATURE IN FAHRENHEIT
  DWPT   - DEWPOINT IN FAHRENHEIT
  RH     - RELATIVE HUMIDITY IN PERCENT
  WIND   - DIRECTION AND SPEED IN MPH
  PRES   - MEAN SEA LEVEL PRESSURE IN INCHES OF HG
  WCI    - WIND CHILL INDEX
  VSB    - VISIBILITY IN MILES
  HX     - HEAT INDEX
  TC     - TEMPERATURE IN CELSIUS
  VRB    - VARIABLE WIND DIRECTION
  N/A    - NOT AVAILABLE
  
      

Other recent Regional Weather Roundups

Thu Nov 26, 11:04pm

Thu Nov 26, 10:04pm

Thu Nov 26, 9:04pm

Thu Nov 26, 8:04pm

Thu Nov 26, 7:04pm

Thu Nov 26, 6:04pm

Thu Nov 26, 5:04pm

Thu Nov 26, 4:04pm

Thu Nov 26, 2:04pm

Thu Nov 26, 1:04pm

Thu Nov 26, 12:04pm

Thu Nov 26, 11:04am

Thu Nov 26, 10:04am

Thu Nov 26, 9:04am

Thu Nov 26, 8:04am

Thu Nov 26, 7:04am

Thu Nov 26, 6:04am

Thu Nov 26, 5:04am

Thu Nov 26, 4:04am

Thu Nov 26, 3:04am

Thu Nov 26, 2:04am

Thu Nov 26, 1:04am

Thu Nov 26, 12:04am

Wed Nov 25, 11:04pm

Wed Nov 25, 10:04pm

Wed Nov 25, 9:04pm

Wed Nov 25, 8:04pm

Wed Nov 25, 7:04pm

Wed Nov 25, 6:04pm

Wed Nov 25, 5:04pm

Wed Nov 25, 4:04pm

Wed Nov 25, 3:05pm

Wed Nov 25, 2:04pm

Wed Nov 25, 1:04pm

Wed Nov 25, 12:05pm

Wed Nov 25, 11:04am

Wed Nov 25, 10:04am

Wed Nov 25, 9:04am

Wed Nov 25, 8:04am

Wed Nov 25, 7:04am

Wed Nov 25, 6:04am

Wed Nov 25, 5:04am

Wed Nov 25, 4:04am

Wed Nov 25, 3:04am

Wed Nov 25, 2:04am

Wed Nov 25, 1:04am

Wed Nov 25, 12:04am

Tue Nov 24, 11:04pm

Tue Nov 24, 10:04pm

Tue Nov 24, 9:04pm

Tue Nov 24, 8:04pm

Tue Nov 24, 7:04pm

Tue Nov 24, 6:04pm

Tue Nov 24, 5:04pm

Tue Nov 24, 4:05pm

Tue Nov 24, 3:05pm

Tue Nov 24, 2:05pm

Tue Nov 24, 1:05pm

Tue Nov 24, 12:04pm

Tue Nov 24, 11:04am

Tue Nov 24, 10:04am

Tue Nov 24, 9:04am

Tue Nov 24, 8:04am

Tue Nov 24, 7:04am

Tue Nov 24, 6:04am

Tue Nov 24, 5:04am

Tue Nov 24, 4:05am

Tue Nov 24, 3:04am

Tue Nov 24, 2:04am

Tue Nov 24, 1:04am

Tue Nov 24, 12:05am

Mon Nov 23, 11:04pm

Mon Nov 23, 10:04pm

Mon Nov 23, 9:04pm

Mon Nov 23, 8:04pm

Mon Nov 23, 7:04pm

Mon Nov 23, 6:04pm

Mon Nov 23, 5:04pm

Mon Nov 23, 4:04pm

Mon Nov 23, 3:04pm

Mon Nov 23, 2:04pm

Mon Nov 23, 1:04pm

Mon Nov 23, 12:04pm

Mon Nov 23, 11:04am

Mon Nov 23, 10:04am

Mon Nov 23, 9:04am

Mon Nov 23, 8:05am

Mon Nov 23, 7:04am

Mon Nov 23, 6:04am

Mon Nov 23, 5:04am

Mon Nov 23, 4:04am

Mon Nov 23, 3:04am

Mon Nov 23, 2:04am

Mon Nov 23, 1:04am

Mon Nov 23, 12:05am

Sun Nov 22, 11:04pm

Sun Nov 22, 10:04pm

Sun Nov 22, 9:04pm

Sun Nov 22, 8:05pm

Sun Nov 22, 7:04pm

Sun Nov 22, 6:04pm

Sun Nov 22, 5:04pm

Sun Nov 22, 3:04pm

Sun Nov 22, 2:04pm

Sun Nov 22, 1:05pm

Sun Nov 22, 12:04pm

Sun Nov 22, 11:04am

Sun Nov 22, 10:05am

Sun Nov 22, 9:04am

Sun Nov 22, 8:04am

Sun Nov 22, 7:04am

Sun Nov 22, 6:04am

Sun Nov 22, 5:04am

Sun Nov 22, 4:04am

Sun Nov 22, 3:04am

Sun Nov 22, 2:04am

Sun Nov 22, 1:04am

Sun Nov 22, 12:04am

Sat Nov 21, 11:04pm

Sat Nov 21, 10:04pm

Sat Nov 21, 9:04pm

Sat Nov 21, 8:05pm

Sat Nov 21, 7:04pm

Sat Nov 21, 6:04pm

Sat Nov 21, 5:04pm

Sat Nov 21, 4:05pm

Sat Nov 21, 3:04pm

Sat Nov 21, 2:04pm

Sat Nov 21, 1:05pm

Sat Nov 21, 12:04pm

Sat Nov 21, 11:04am

Sat Nov 21, 10:04am

Sat Nov 21, 9:04am

Sat Nov 21, 8:04am

Sat Nov 21, 7:04am

Sat Nov 21, 6:04am

Sat Nov 21, 5:04am

Sat Nov 21, 4:04am

Sat Nov 21, 3:04am

Sat Nov 21, 2:04am

Sat Nov 21, 1:04am

Sat Nov 21, 12:04am

Fri Nov 20, 11:04pm

Fri Nov 20, 10:04pm

Fri Nov 20, 9:04pm

Fri Nov 20, 8:04pm

Fri Nov 20, 7:04pm

Fri Nov 20, 6:04pm

Fri Nov 20, 5:04pm

Fri Nov 20, 4:05pm

Fri Nov 20, 3:05pm

Fri Nov 20, 2:04pm

Fri Nov 20, 1:04pm

Fri Nov 20, 12:04pm

Fri Nov 20, 11:04am

Fri Nov 20, 10:04am

Fri Nov 20, 9:04am

Fri Nov 20, 8:04am

Fri Nov 20, 7:04am

Fri Nov 20, 6:04am

Fri Nov 20, 5:04am

Fri Nov 20, 4:04am

Fri Nov 20, 3:04am

Meta data:

ID: 6bdb8082-88cf-446e-9faf-b678a7a794f0
Link: https://api.weather.gov/products/6bdb8082-88cf-446e-9faf-b678a7a794f0